Find Kosmos-2564

NORAD ID: 54377 Int'l Des: 2022-161 Owner: VVKOV/IACG Country: RU Constellation: GLONASS operational
MEOCIRCULAR

現在のビュー

3D地球を読み込み中...

About Kosmos-2564

Kosmos-2564 (NORAD 54377) is a GLONASS constellation satellite launched Nov 28, 2022 by VVKOV/IACG of RU. It operates in MEO, CIRCULAR orbit with a mass of 1450.00 kg.

Kosmos-2564について

説明を読み込み中...

次回通過

Passes for default location (London). Set your location on the main map for personalized predictions.

高度履歴

Loading altitude history...

軌道要素

1 54377U 22161A 26170.11812921 .00000056 00000-0 00000+0 0 9999
2 54377 64.7419 192.6477 0012210 224.8442 135.1033 2.13102019 27674
Epoch: Jun 19, 2026 • Age: 10 hours

現在のステータス

高度 19145.7 km
速度 3.95 km/s
衛星直下点 -29.28°S, 73.44°E
打ち上げ日 Nov 28, 2022
運用期間 3.5 years
タイプ other

技術仕様

分類 Payload
質量 1450.00 kg
乾燥質量 1200.00 kg
総質量 1450.00 kg
長さ 4.00 m
直径 1.50 m
スパン 7.80 m
形状 Cyl + Ant + 2 Pan
製造者 RESH
バスタイプ Uragan
フェーズステータス In Orbit
所有者/国 VVKOV/IACG/RU

Most Searched